This is the latest recevied weather packets stored in our database for station/object W1LH-12. If no packets are shown the sender has not sent any weather packets the latest 10 day(s).
| Time | Temp. | Humidity | Pressure | Rain* | Wind** | Luminosity | Snow |
|---|---|---|---|---|---|---|---|
| 1777829780 | 6.67° C | - | 1002.8 hPa | 0 mm | - | - | - |
| 1777821380 | 7.78° C | - | 1004.1 hPa | 0 mm | - | - | - |
| 1777820180 | 7.22° C | - | 1004.8 hPa | 0 mm | - | - | - |
| 1777813880 | 6.11° C | - | 1006.5 hPa | 0 mm | - | - | - |
| 1777812980 | 6.11° C | - | 1006.8 hPa | 0 mm | - | - | - |
| 1777809982 | 6.11° C | - | 1007.5 hPa | 0 mm | - | - | - |
| 1777809681 | 5.56° C | - | 1007.5 hPa | 0 mm | - | - | - |
| 1777809380 | 5.56° C | - | 1007.8 hPa | 0 mm | - | - | - |
| 1777808779 | 5.56° C | - | 1008.2 hPa | 0 mm | - | - | - |
| 1777807580 | 5.56° C | - | 1008.2 hPa | 0 mm | - | - | - |
| 1777806979 | 5.56° C | - | 1008.2 hPa | 0 mm | - | - | - |
| 1777798882 | 5.56° C | - | 1009.2 hPa | 0 mm | - | - | - |
| 1777798581 | 5.56° C | - | 1009.2 hPa | 0 mm | - | - | - |
| 1777797981 | 5.56° C | - | 1009.2 hPa | 0 mm | - | - | - |
| 1777797681 | 5.56° C | - | 1009.5 hPa | 0 mm | - | - | - |
| 1777797380 | 5.56° C | - | 1009.5 hPa | 0 mm | - | - | - |
| 1777797081 | 5.56° C | - | 1009.5 hPa | 0 mm | - | - | - |
| 1777796781 | 5.56° C | - | 1009.9 hPa | 0 mm | - | - | - |
| 1777796481 | 5.56° C | - | 1009.9 hPa | 0 mm | - | - | - |
| 1777796181 | 5.56° C | - | 1009.9 hPa | 0 mm | - | - | - |
| 1777795879 | 5.56° C | - | 1009.9 hPa | 0 mm | - | - | - |
| 1777795582 | 5.56° C | - | 1009.9 hPa | 0 mm | - | - | - |
| 1777795281 | 5.56° C | - | 1010.2 hPa | 0 mm | - | - | - |
| 1777794980 | 6.11° C | - | 1010.2 hPa | 0 mm | - | - | - |
| 1777794379 | 6.11° C | - | 1010.2 hPa | 0 mm | - | - | - |
* Rain latest hour (hover to see other rain measurements)
** Current wind speed in m/s (hover to see current wind gust speed)